CZ-2C DEB, 40290

Orbit data source: Space-Track

CZ-2C DEB, 40290 is space debris in SSO originally from a launch on Mon, 27 Oct 2014 UTC launched from the Jiuquan Satellite Launch Center, China (JSC). Debris objects in space refer to the collection of defunct objects orbiting the Earth. Examples of debris include non-operational satellites, rocket bodies, and fragments generated from explosions, collisions, or faulty payload assembly.

Loading next visibility...
Identifier
40290, 2014-066E
Orbit
SSO
Country
Flag of CNCN / PRC
Related business
Manufacturer
CALT
Mission
Spacecraft
Bus & Motor
Unknown
Mass
1 kg wet, 1 kg dry
Launch date (UTC)
2014-10-27 (12 years ago)
Launch vehicle
Unknown
Launch site
Jiuquan Satellite Launch Center, China (JSC)
Object type
Payload
Rocket body
Debris
Shape & HBR
Cone, 0.1 m
Radar Cross Section
0.025 m², Small (<0.1 m²)

Expand to show TLE details & history
Last TLE update: 6 hours ago

TLE from 6 hours ago
0 CZ-2C DEB
1 40290U 14066E   26121.50250230  .00024881  00000-0  20387-2 0  9996
2 40290  97.9345  98.1444 0043675 349.6728  10.3592 14.98505170612995
Epoch: 2026-05-01T12:03Z
TLE epoch observation values (Epoch: 2026-05-01T12:03:36.198Z)
Latitude
-0.00006°
Longitude
57.80975°
Altitude
544.7 km
Speed
7.606 km/s
True Right ascension
06h 32m 34s
True Declination
0° 00' 00"
Sunlit
Object was in daylight at epoch
Visualization orbit readout
Latitude
Unknown
Longitude
Unknown
Altitude
Unknown
Speed
Unknown
Apparent Right ascension
Unknown
Apparent Declination
Unknown
Sunlit
N/A
Visualization observer readout
Local Sidereal Time
01:46:53
Azimuth
Unknown
Elevation
Unknown
Doppler factor
Unknown
Orbital elements
Apogee altitude
598.871 km
Perigee altitude
538.192 km
Semi-major axis
6,946.669 km
Eccentricity
0.00437
Inclination
97.9345°
RAAN
98.1444°
Arg. of periapsis
349.6728°
True anomaly
10.44968°
Mean anomaly
10.3592°
Eccentric anomaly
10.40439°
Mean motion
3.74868 °/min
Orbital period
96.03 mins
BSTAR
0.0020387
Loading maneuver chart data...
Computing Atmospheric mass density...
Loading historical data...
Loading historical data...
Loading historical data...
Loading historical data...
Loading historical data...
Loading historical data...
Loading historical data...
Other satellites on launch #66 in the year 2014 (2014-10-27 UTC)

Documentation

Showing up to 5 results
|